Volver al catálogo

THORAD DELTA 1 DEB

LostSSO
NORAD 42627·DEBRIS·🇺🇸 United States

Lanzado Nov 15, 1974 desde Vandenberg Space Force Base

Loading…

Próximos Pases (próximas 24 horas)

TLE

ObsoletoSource: Space-Track

Época: Aug 5, 2025, 17:25 UTC

1 42627U 74089GU  25217.72591954  .00000065  00000-0  64607-3 0  9995
2 42627 101.6803 191.5424 0063642 176.7571 183.3928 12.57963128963920

Sigue THORAD DELTA 1 DEB en tiempo real con AllMySat

Download on the App Store